アトラス彗星

C/2021 C4 ( ATLAS )

English version
Home page
Updated on July 12, 2021

---------------------------------------------------------------------

・ プロフィール

発見日 2021年2月12日
発見光度 18.7等
発見者 Asteroid Terrestrial-Impact Last Alert System (ATLAS) search program

・ 写真集

・ 軌道要素

Epoch 2021 July 5.0 TT = JDT 2459400.5
T 2021 Jan. 17.05538 TT                                 Rudenko
q   4.5041609            (2000.0)            P               Q
z  +0.0001832      Peri.  320.23156     -0.63763265     -0.74881979
 +/-0.0000083      Node   194.27643     -0.37409378     +0.09581334
e   0.9991750      Incl.  132.84258     -0.67340809     +0.65581150
From 182 observations 2021 Feb. 12-June 27, mean residual 0".6.

・ 光度変化

        m1 = 8.5 + 5 logΔ + 10.0 log r

---------------------------------------------------------------------

軌道要素はM.P.E.C. 2021-N06に掲載されたものです。
光度グラフはComet for Windowsで作成したものです。

---------------------------------------------------------------------

Copyright(C) Seiichi Yoshida (comet@aerith.net). All rights reserved.